Time,TemperatureF,DewpointF,PressureIn,WindDirection,WindDirectionDegrees,WindSpeedMPH,WindSpeedGustMPH,Humidity,HourlyPrecipIn,Conditions,Clouds,dailyrainin,SoftwareType,DateUTC
2013-02-01 00:05:00,-0.3,-6.0,30.37,West,274,13.0,22.0,76,0.00,,,0.00,weatherlink.com 1.10,2013-02-01 06:05:00,
2013-02-01 00:20:00,-0.4,-6.0,30.37,WNW,295,11.0,20.0,77,0.00,,,0.00,weatherlink.com 1.10,2013-02-01 06:20:00,
2013-02-01 00:35:00,-0.4,-5.0,30.38,West,281,16.0,19.0,79,0.00,,,0.00,weatherlink.com 1.10,2013-02-01 06:35:00,
2013-02-01 00:50:00,-0.6,-6.0,30.38,WNW,300,16.0,22.0,78,0.00,,,0.00,weatherlink.com 1.10,2013-02-01 06:50:00,
2013-02-01 01:06:00,-0.7,-6.0,30.39,West,273,16.0,21.0,78,0.00,,,0.00,weatherlink.com 1.10,2013-02-01 07:06:00,
2013-02-01 01:20:00,-0.8,-6.0,30.39,NW,319,15.0,20.0,77,0.00,,,0.00,weatherlink.com 1.10,2013-02-01 07:20:00,
2013-02-01 01:36:00,-0.9,-6.0,30.39,NW,315,15.0,18.0,78,0.00,,,0.00,weatherlink.com 1.10,2013-02-01 07:36:00,
2013-02-01 01:50:00,-0.9,-6.0,30.40,WNW,286,8.0,18.0,78,0.00,,,0.00,weatherlink.com 1.10,2013-02-01 07:50:00,
2013-02-01 02:06:00,-0.9,-6.0,30.41,WNW,284,12.0,20.0,78,0.00,,,0.00,weatherlink.com 1.10,2013-02-01 08:06:00,
2013-02-01 02:21:00,-1.0,-7.0,30.40,WNW,300,13.0,24.0,77,0.00,,,0.00,weatherlink.com 1.10,2013-02-01 08:21:00,
2013-02-01 02:51:00,-1.3,-7.0,30.41,WNW,290,8.0,17.0,78,0.00,,,0.00,weatherlink.com 1.10,2013-02-01 08:51:00,
2013-02-01 03:06:00,-1.4,-7.0,30.41,WNW,301,7.0,19.0,77,0.00,,,0.00,weatherlink.com 1.10,2013-02-01 09:06:00,
2013-02-01 03:21:00,-1.6,-7.0,30.41,WNW,284,7.0,19.0,77,0.00,,,0.00,weatherlink.com 1.10,2013-02-01 09:21:00,
2013-02-01 03:36:00,-1.8,-7.0,30.41,West,281,10.0,15.0,78,0.00,,,0.00,weatherlink.com 1.10,2013-02-01 09:36:00,
2013-02-01 03:51:00,-2.0,-7.0,30.42,WNW,296,12.0,13.0,78,0.00,,,0.00,weatherlink.com 1.10,2013-02-01 09:51:00,
2013-02-01 04:06:00,-2.1,-8.0,30.42,WNW,286,8.0,16.0,77,0.00,,,0.00,weatherlink.com 1.10,2013-02-01 10:06:00,
2013-02-01 04:21:00,-2.2,-8.0,30.42,WNW,295,11.0,17.0,77,0.00,,,0.00,weatherlink.com 1.10,2013-02-01 10:21:00,
2013-02-01 04:36:00,-2.2,-8.0,30.43,WNW,286,9.0,17.0,77,0.00,,,0.00,weatherlink.com 1.10,2013-02-01 10:36:00,
2013-02-01 04:51:00,-2.3,-8.0,30.43,West,265,7.0,16.0,78,0.00,,,0.00,weatherlink.com 1.10,2013-02-01 10:51:00,
2013-02-01 05:06:00,-2.3,-8.0,30.43,NW,311,4.0,14.0,78,0.00,,,0.00,weatherlink.com 1.10,2013-02-01 11:06:00,
2013-02-01 05:22:00,-2.5,-8.0,30.43,WNW,284,6.0,12.0,79,0.00,,,0.00,weatherlink.com 1.10,2013-02-01 11:22:00,
2013-02-01 05:37:00,-2.5,-7.0,30.43,WNW,290,8.0,13.0,81,0.00,,,0.00,weatherlink.com 1.10,2013-02-01 11:37:00,
2013-02-01 05:52:00,-2.5,-8.0,30.44,West,265,17.0,20.0,79,0.00,,,0.00,weatherlink.com 1.10,2013-02-01 11:52:00,
2013-02-01 06:07:00,-2.7,-8.0,30.45,WNW,291,13.0,18.0,78,0.00,,,0.00,weatherlink.com 1.10,2013-02-01 12:07:00,
2013-02-01 06:22:00,-3.0,-8.0,30.45,NW,310,12.0,19.0,78,0.00,,,0.00,weatherlink.com 1.10,2013-02-01 12:22:00,
2013-02-01 06:37:00,-3.2,-8.0,30.45,West,269,11.0,17.0,79,0.00,,,0.00,weatherlink.com 1.10,2013-02-01 12:37:00,
2013-02-01 06:52:00,-3.4,-9.0,30.45,WNW,287,2.0,16.0,78,0.00,,,0.00,weatherlink.com 1.10,2013-02-01 12:52:00,
2013-02-01 07:09:00,-3.6,-9.0,30.45,West,274,4.0,14.0,77,0.00,,,0.00,weatherlink.com 1.10,2013-02-01 13:09:00,
2013-02-01 07:22:00,-3.8,-9.0,30.45,WNW,300,9.0,13.0,78,0.00,,,0.00,weatherlink.com 1.10,2013-02-01 13:22:00,
2013-02-01 07:37:00,-3.7,-9.0,30.45,WNW,290,6.0,13.0,78,0.00,,,0.00,weatherlink.com 1.10,2013-02-01 13:37:00,
2013-02-01 07:53:00,-3.4,-9.0,30.46,West,272,9.0,14.0,77,0.00,,,0.00,weatherlink.com 1.10,2013-02-01 13:53:00,
2013-02-01 08:07:00,-3.2,-8.0,30.47,West,273,7.0,13.0,78,0.00,,,0.00,weatherlink.com 1.10,2013-02-01 14:07:00,
2013-02-01 08:22:00,-3.0,-8.0,30.47,West,274,6.0,12.0,79,0.00,,,0.00,weatherlink.com 1.10,2013-02-01 14:22:00,
2013-02-01 08:37:00,-2.9,-8.0,30.47,West,277,15.0,16.0,78,0.00,,,0.00,weatherlink.com 1.10,2013-02-01 14:37:00,
2013-02-01 08:53:00,-2.7,-9.0,30.48,WNW,298,11.0,16.0,76,0.00,,,0.00,weatherlink.com 1.10,2013-02-01 14:53:00,
2013-02-01 09:08:00,-2.8,-9.0,30.48,WNW,290,10.0,17.0,74,0.00,,,0.00,weatherlink.com 1.10,2013-02-01 15:08:00,
2013-02-01 09:23:00,-2.5,-9.0,30.48,NW,318,5.0,14.0,75,0.00,,,0.00,weatherlink.com 1.10,2013-02-01 15:23:00,
2013-02-01 09:38:00,-2.0,-8.0,30.48,West,280,12.0,13.0,75,0.00,,,0.00,weatherlink.com 1.10,2013-02-01 15:38:00,
2013-02-01 09:53:00,-1.8,-8.0,30.48,West,262,9.0,14.0,75,0.00,,,0.00,weatherlink.com 1.10,2013-02-01 15:53:00,
2013-02-01 10:08:00,-1.8,-8.0,30.48,West,269,6.0,14.0,74,0.00,,,0.00,weatherlink.com 1.10,2013-02-01 16:08:00,
2013-02-01 10:23:00,-1.3,-7.0,30.48,WSW,255,7.0,12.0,75,0.00,,,0.00,weatherlink.com 1.10,2013-02-01 16:23:00,
2013-02-01 10:38:00,-0.8,-7.0,30.48,West,279,6.0,13.0,75,0.00,,,0.00,weatherlink.com 1.10,2013-02-01 16:38:00,
2013-02-01 10:53:00,-0.4,-6.0,30.48,SW,234,6.0,10.0,76,0.00,,,0.00,weatherlink.com 1.10,2013-02-01 16:53:00,
2013-02-01 11:08:00,-0.1,-7.0,30.48,West,265,6.0,13.0,74,0.00,,,0.00,weatherlink.com 1.10,2013-02-01 17:08:00,
2013-02-01 11:23:00,0.3,-6.0,30.48,WSW,243,13.0,14.0,75,0.00,,,0.00,weatherlink.com 1.10,2013-02-01 17:23:00,
2013-02-01 11:39:00,0.7,-5.0,30.47,West,274,5.0,12.0,76,0.00,,,0.00,weatherlink.com 1.10,2013-02-01 17:39:00,
2013-02-01 11:54:00,1.2,-5.0,30.46,SSW,208,7.0,11.0,75,0.00,,,0.00,weatherlink.com 1.10,2013-02-01 17:54:00,
2013-02-01 12:08:00,1.3,-5.0,30.46,West,272,7.0,10.0,74,0.00,,,0.00,weatherlink.com 1.10,2013-02-01 18:08:00,
2013-02-01 12:24:00,1.7,-5.0,30.45,WSW,246,12.0,13.0,74,0.00,,,0.00,weatherlink.com 1.10,2013-02-01 18:24:00,
2013-02-01 12:39:00,2.4,-4.0,30.44,WSW,258,10.0,12.0,76,0.00,,,0.00,weatherlink.com 1.10,2013-02-01 18:39:00,
2013-02-01 12:54:00,2.8,-4.0,30.43,SW,235,8.0,11.0,74,0.00,,,0.00,weatherlink.com 1.10,2013-02-01 18:54:00,
2013-02-01 13:09:00,2.9,-4.0,30.42,WSW,252,5.0,13.0,72,0.00,,,0.00,weatherlink.com 1.10,2013-02-01 19:09:00,
2013-02-01 13:24:00,3.6,-4.0,30.41,SW,221,7.0,12.0,71,0.00,,,0.00,weatherlink.com 1.10,2013-02-01 19:24:00,
2013-02-01 13:39:00,4.3,-3.0,30.40,WSW,239,7.0,10.0,72,0.00,,,0.00,weatherlink.com 1.10,2013-02-01 19:39:00,
2013-02-01 13:54:00,4.8,-2.0,30.40,WSW,245,7.0,11.0,73,0.00,,,0.00,weatherlink.com 1.10,2013-02-01 19:54:00,
2013-02-01 14:09:00,5.6,-1.0,30.39,SSW,200,8.0,12.0,74,0.00,,,0.00,weatherlink.com 1.10,2013-02-01 20:09:00,
2013-02-01 14:25:00,6.5,-1.0,30.39,SW,220,8.0,12.0,71,0.00,,,0.00,weatherlink.com 1.10,2013-02-01 20:25:00,
2013-02-01 14:39:00,7.0,-1.0,30.39,SW,229,5.0,14.0,70,0.00,,,0.00,weatherlink.com 1.10,2013-02-01 20:39:00,
2013-02-01 14:54:00,7.3,0.0,30.39,WSW,243,11.0,16.0,71,0.00,,,0.00,weatherlink.com 1.10,2013-02-01 20:54:00,
2013-02-01 15:09:00,7.1,-1.0,30.39,WSW,248,14.0,15.0,71,0.00,,,0.00,weatherlink.com 1.10,2013-02-01 21:09:00,
2013-02-01 15:24:00,7.3,0.0,30.39,WSW,242,12.0,15.0,72,0.00,,,0.00,weatherlink.com 1.10,2013-02-01 21:24:00,
2013-02-01 15:40:00,7.1,-1.0,30.38,SW,234,10.0,14.0,70,0.00,,,0.00,weatherlink.com 1.10,2013-02-01 21:40:00,
2013-02-01 16:10:00,7.7,1.0,30.36,SW,217,6.0,10.0,74,0.00,,,0.00,weatherlink.com 1.10,2013-02-01 22:10:00,
2013-02-01 16:25:00,7.9,1.0,30.36,WSW,248,6.0,11.0,73,0.00,,,0.00,weatherlink.com 1.10,2013-02-01 22:25:00,
2013-02-01 16:40:00,8.0,1.0,30.36,SSW,208,6.0,9.0,73,0.00,,,0.00,weatherlink.com 1.10,2013-02-01 22:40:00,
2013-02-01 16:55:00,8.2,2.0,30.35,SW,214,9.0,12.0,74,0.00,,,0.00,weatherlink.com 1.10,2013-02-01 22:55:00,
2013-02-01 17:10:00,8.5,2.0,30.34,SW,215,6.0,11.0,75,0.00,,,0.00,weatherlink.com 1.10,2013-02-01 23:10:00,
2013-02-01 17:25:00,8.9,3.0,30.33,SSW,198,6.0,10.0,75,0.00,,,0.00,weatherlink.com 1.10,2013-02-01 23:25:00,
2013-02-01 17:40:00,9.4,3.0,30.32,SW,214,3.0,12.0,75,0.00,,,0.00,weatherlink.com 1.10,2013-02-01 23:40:00,
2013-02-01 17:55:00,9.7,3.0,30.32,SW,235,10.0,11.0,73,0.00,,,0.00,weatherlink.com 1.10,2013-02-01 23:55:00,
2013-02-01 18:11:00,10.0,3.0,30.32,SW,221,7.0,13.0,74,0.00,,,0.00,weatherlink.com 1.10,2013-02-02 00:11:00,
2013-02-01 18:40:00,10.6,4.0,30.29,SSW,192,7.0,11.0,74,0.00,,,0.00,weatherlink.com 1.10,2013-02-02 00:40:00,
2013-02-01 18:56:00,11.0,5.0,30.29,SSE,151,6.0,11.0,76,0.00,,,0.00,weatherlink.com 1.10,2013-02-02 00:56:00,
2013-02-01 19:11:00,11.5,6.0,30.28,SSW,207,6.0,11.0,77,0.00,,,0.00,weatherlink.com 1.10,2013-02-02 01:11:00,
2013-02-01 19:26:00,12.0,6.0,30.27,SSW,194,4.0,9.0,77,0.00,,,0.00,weatherlink.com 1.10,2013-02-02 01:26:00,
2013-02-01 19:41:00,12.5,7.0,30.26,SSW,200,2.0,12.0,77,0.00,,,0.00,weatherlink.com 1.10,2013-02-02 01:41:00,
2013-02-01 19:56:00,13.1,7.0,30.26,SSW,201,7.0,12.0,76,0.00,,,0.00,weatherlink.com 1.10,2013-02-02 01:56:00,
2013-02-01 20:11:00,13.6,7.0,30.26,South,191,7.0,11.0,76,0.00,,,0.00,weatherlink.com 1.10,2013-02-02 02:11:00,
2013-02-01 20:26:00,14.0,8.0,30.25,SSW,211,7.0,12.0,76,0.00,,,0.00,weatherlink.com 1.10,2013-02-02 02:26:00,
2013-02-01 20:41:00,14.4,8.0,30.24,SSW,213,3.0,8.0,77,0.00,,,0.00,weatherlink.com 1.10,2013-02-02 02:41:00,
2013-02-01 20:56:00,14.9,9.0,30.24,SW,217,4.0,8.0,77,0.00,,,0.00,weatherlink.com 1.10,2013-02-02 02:56:00,
2013-02-01 21:12:00,15.3,10.0,30.24,SSW,207,3.0,8.0,78,0.00,,,0.00,weatherlink.com 1.10,2013-02-02 03:12:00,
2013-02-01 21:26:00,15.7,10.0,30.23,SE,140,6.0,9.0,78,0.00,,,0.00,weatherlink.com 1.10,2013-02-02 03:26:00,
2013-02-01 21:41:00,16.2,11.0,30.23,South,175,8.0,11.0,78,0.00,,,0.00,weatherlink.com 1.10,2013-02-02 03:41:00,
2013-02-01 21:56:00,16.8,11.0,30.22,SSW,213,2.0,9.0,78,0.00,,,0.00,weatherlink.com 1.10,2013-02-02 03:56:00,
2013-02-01 22:11:00,17.3,12.0,30.22,SE,144,6.0,9.0,78,0.00,,,0.00,weatherlink.com 1.10,2013-02-02 04:11:00,
2013-02-01 22:27:00,17.7,12.0,30.22,SW,225,4.0,9.0,79,0.00,,,0.00,weatherlink.com 1.10,2013-02-02 04:27:00,
2013-02-01 22:42:00,17.8,13.0,30.22,SSW,213,6.0,10.0,81,0.00,,,0.00,weatherlink.com 1.10,2013-02-02 04:42:00,
2013-02-01 22:57:00,17.8,14.0,30.21,South,176,5.0,9.0,84,0.00,,,0.00,weatherlink.com 1.10,2013-02-02 04:57:00,
2013-02-01 23:12:00,17.8,14.0,30.21,South,184,7.0,9.0,86,0.00,,,0.00,weatherlink.com 1.10,2013-02-02 05:12:00,
2013-02-01 23:27:00,18.2,15.0,30.20,SSW,210,5.0,10.0,86,0.00,,,0.00,weatherlink.com 1.10,2013-02-02 05:27:00,
2013-02-01 23:42:00,18.6,15.0,30.19,SSW,207,3.0,9.0,85,0.00,,,0.00,weatherlink.com 1.10,2013-02-02 05:42:00,
2013-02-01 23:57:00,19.3,16.0,30.18,SSW,205,4.0,11.0,85,0.00,,,0.00,weatherlink.com 1.10,2013-02-02 05:57:00,